WA6MEM Weather Reports


time (UTC)temp
C
wind
direction
speed
KPH
gust
KPH
rain 1hr
cm
rain 24hr
cm
rain mn
cm
humidity
%
barometer
mb
20260902032554 16 207 4.8 0.0 0.00 0.00 0.03 91 1012.5
20260902032054 16 229 4.8 0.0 0.00 0.00 0.03 90 1012.5
20260902031554 16 281 6.4 0.0 0.00 0.00 0.03 90 1012.5
20260902031054 16 269 4.8 0.0 0.00 0.00 0.03 90 1012.4
20260902030556 16 236 4.8 0.0 0.00 0.00 0.03 90 1012.4
20260902030053 16 172 3.2 0.0 0.00 0.00 0.03 90 1012.4
20260902025554 16 198 4.8 0.0 0.00 0.00 0.03 89 1012.4
20260902025054 16 207 3.2 0.0 0.00 0.00 0.03 89 1012.4
20260902024555 16 206 3.2 0.0 0.00 0.00 0.03 88 1012.4
20260902024053 16 214 3.2 0.0 0.00 0.00 0.03 87 1012.3
20260902023552 16 189 1.6 0.0 0.00 0.00 0.03 86 1012.3
20260902023054 16 177 1.6 0.0 0.00 0.00 0.03 86 1012.3
20260902022553 16 192 3.2 0.0 0.00 0.00 0.03 85 1012.3
20260902022052 17 201 3.2 0.0 0.00 0.00 0.03 85 1012.3
20260902021557 17 209 3.2 0.0 0.00 0.00 0.03 85 1012.3
20260902021052 17 172 3.2 0.0 0.00 0.00 0.03 84 1012.4
20260902020554 17 225 3.2 0.0 0.00 0.00 0.03 84 1012.4
20260902020052 17 215 3.2 0.0 0.00 0.00 0.03 84 1012.4
20260902015556 17 181 3.2 0.0 0.00 0.00 0.03 84 1012.3
20260902015052 17 211 3.2 0.0 0.00 0.00 0.03 84 1012.3
20260902014552 17 184 4.8 0.0 0.00 0.00 0.03 84 1012.3
20260902014052 18 205 4.8 0.0 0.00 0.00 0.03 83 1012.3
20260902013551 18 214 3.2 0.0 0.00 0.00 0.03 83 1012.3
20260902013051 18 202 4.8 0.0 0.00 0.00 0.03 82 1012.3
20260902012550 18 174 4.8 0.0 0.00 0.00 0.03 81 1012.2
20260902012050 18 205 3.2 0.0 0.00 0.00 0.03 81 1012.2
20260902011551 19 233 3.2 0.0 0.00 0.00 0.03 80 1012.2
20260902011051 19 199 4.8 0.0 0.00 0.00 0.03 80 1012.4
20260902010550 19 208 4.8 0.0 0.00 0.00 0.03 80 1012.4
20260902010051 19 222 4.8 0.0 0.00 0.00 0.03 80 1012.4
20260902005550 19 215 4.8 0.0 0.00 0.00 0.03 80 1012.5
20260902005052 19 205 4.8 0.0 0.00 0.00 0.03 80 1012.5
20260902004550 20 230 4.8 0.0 0.00 0.00 0.03 79 1012.5
20260902004050 20 254 4.8 0.0 0.00 0.00 0.03 76 1012.5
20260902003549 20 231 4.8 0.0 0.00 0.00 0.03 76 1012.5
20260902003049 20 297 4.8 0.0 0.00 0.00 0.03 75 1012.5
20260902002550 20 228 4.8 0.0 0.00 0.00 0.03 75 1012.5
20260902002050 20 200 4.8 0.0 0.00 0.00 0.03 75 1012.5
20260902001549 21 209 4.8 0.0 0.00 0.00 0.03 74 1012.5
20260902001052 21 244 4.8 0.0 0.00 0.00 0.03 74 1012.6
20260902000549 21 192 3.2 0.0 0.00 0.00 0.03 72 1012.6
20260902000053 21 229 4.8 0.0 0.00 0.00 0.03 73 1012.6
20260901235549 21 252 6.4 0.0 0.00 0.00 0.03 71 1012.7
20260901235049 21 216 4.8 0.0 0.00 0.00 0.03 72 1012.7
20260901234557 21 254 4.8 0.0 0.00 0.00 0.03 73 1012.7
20260901234048 21 255 4.8 0.0 0.00 0.00 0.03 73 1012.6
20260901233548 21 227 4.8 0.0 0.00 0.00 0.03 71 1012.6
20260901233048 21 223 4.8 0.0 0.00 0.00 0.03 71 1012.6
20260901232550 21 196 4.8 0.0 0.00 0.00 0.03 66 1012.6
20260901232048 21 232 4.8 0.0 0.00 0.00 0.03 72 1012.6
20260901231548 21 215 4.8 0.0 0.00 0.00 0.03 72 1012.6
20260901231047 21 250 6.4 0.0 0.00 0.00 0.03 71 1012.7
20260901230547 21 297 6.4 0.0 0.00 0.00 0.03 71 1012.7
20260901230048 22 232 6.4 0.0 0.00 0.00 0.03 70 1012.7
20260901225546 22 240 8.0 0.0 0.00 0.00 0.03 69 1012.7
20260901225047 22 211 6.4 0.0 0.00 0.00 0.03 68 1012.7
20260901224547 22 205 6.4 0.0 0.00 0.00 0.03 65 1012.7
20260901224049 22 191 6.4 0.0 0.00 0.00 0.03 66 1012.8
20260901223546 22 166 6.4 0.0 0.00 0.00 0.03 66 1012.8
20260901223046 22 208 6.4 0.0 0.00 0.00 0.03 64 1012.8
20260901222545 22 215 6.4 0.0 0.00 0.00 0.03 65 1013.0
20260901222045 22 205 6.4 0.0 0.00 0.00 0.03 64 1013.0
20260901221614 22 186 6.4 0.0 0.00 0.00 0.03 66 1013.0
20260901221045 22 203 6.4 0.0 0.00 0.00 0.03 65 1013.1
20260901220545 22 228 6.4 0.0 0.00 0.00 0.03 64 1013.1
20260901220044 22 200 6.4 0.0 0.00 0.00 0.03 64 1013.1
20260901215543 22 198 6.4 0.0 0.00 0.00 0.03 67 1013.1
20260901215048 22 229 6.4 0.0 0.00 0.00 0.03 67 1013.1
20260901214542 22 222 6.4 0.0 0.00 0.00 0.03 68 1013.1
20260901214043 22 207 6.4 0.0 0.00 0.00 0.03 72 1013.2
20260901213541 22 156 6.4 0.0 0.00 0.00 0.03 72 1013.2
20260901213059 22 192 6.4 0.0 0.00 0.00 0.03 72 1013.2
20260901212541 22 202 6.4 0.0 0.00 0.00 0.03 71 1013.4
20260901212041 22 221 6.4 0.0 0.00 0.00 0.03 71 1013.4
20260901211545 22 165 4.8 0.0 0.00 0.00 0.03 73 1013.4
20260901211041 22 277 6.4 0.0 0.00 0.00 0.03 72 1013.4
20260901210541 22 173 8.0 0.0 0.00 0.00 0.03 72 1013.4
20260901210041 22 201 6.4 0.0 0.00 0.00 0.03 72 1013.4
20260901205542 22 212 6.4 0.0 0.00 0.00 0.03 72 1013.6
20260901205039 22 171 6.4 0.0 0.00 0.00 0.03 71 1013.6
20260901204540 22 194 4.8 0.0 0.00 0.00 0.03 71 1013.6
20260901204039 22 198 4.8 0.0 0.00 0.00 0.03 71 1013.6
20260901203538 22 244 4.8 0.0 0.00 0.00 0.03 72 1013.6
20260901203044 22 168 4.8 0.0 0.00 0.00 0.03 72 1013.6
20260901202537 22 202 4.8 0.0 0.00 0.00 0.03 75 1013.9
20260901202038 22 213 4.8 0.0 0.00 0.00 0.03 74 1013.9
20260901201537 22 234 4.8 0.0 0.00 0.00 0.03 74 1013.9
20260901201036 22 159 4.8 0.0 0.00 0.00 0.03 75 1014.1
20260901200534 21 123 4.8 0.0 0.00 0.00 0.03 75 1014.1
20260901200043 21 218 4.8 0.0 0.00 0.00 0.03 74 1014.1
20260901195536 21 255 4.8 0.0 0.00 0.00 0.03 76 1014.2
20260901195038 21 185 4.8 0.0 0.00 0.00 0.03 74 1014.2
20260901194532 21 221 4.8 0.0 0.00 0.00 0.03 74 1014.2
20260901194032 21 190 4.8 0.0 0.00 0.00 0.03 76 1014.3
20260901193531 21 180 4.8 0.0 0.00 0.00 0.03 76 1014.3
20260901193031 21 165 4.8 0.0 0.00 0.00 0.03 76 1014.3
20260901192530 21 153 4.8 0.0 0.00 0.00 0.03 77 1014.3
20260901192032 21 148 4.8 0.0 0.00 0.00 0.03 77 1014.3
20260901191528 21 209 4.8 0.0 0.00 0.00 0.03 78 1014.3
20260901191030 21 233 4.8 0.0 0.00 0.00 0.03 79 1014.4
20260901190526 21 161 4.8 0.0 0.00 0.00 0.03 78 1014.4
20260901190026 21 135 4.8 0.0 0.00 0.00 0.03 79 1014.4
20260901185527 20 167 4.8 0.0 0.00 0.00 0.03 79 1014.3
20260901185025 20 180 4.8 0.0 0.00 0.00 0.03 79 1014.3
20260901184531 20 179 4.8 0.0 0.00 0.00 0.03 79 1014.3
20260901184024 20 188 4.8 0.0 0.00 0.00 0.03 79 1014.4
20260901183523 20 159 3.2 0.0 0.00 0.00 0.03 79 1014.4
20260901183022 20 155 3.2 0.0 0.00 0.00 0.03 79 1014.4
20260901182521 20 167 3.2 0.0 0.00 0.00 0.03 80 1014.3
20260901182021 20 192 3.2 0.0 0.00 0.00 0.03 80 1014.3
20260901181520 20 173 4.8 0.0 0.00 0.00 0.03 81 1014.3
20260901181018 20 186 4.8 0.0 0.00 0.00 0.03 81 1014.4
20260901180518 20 196 4.8 0.0 0.00 0.00 0.03 81 1014.4
20260901180018 20 161 4.8 0.0 0.00 0.00 0.03 81 1014.4
20260901175517 20 208 3.2 0.0 0.00 0.00 0.03 82 1014.5
20260901175017 20 202 3.2 0.0 0.00 0.00 0.03 83 1014.5
20260901174516 19 146 4.8 0.0 0.00 0.00 0.03 83 1014.5
20260901174018 19 161 4.8 0.0 0.00 0.00 0.03 83 1014.4
20260901173514 19 177 3.2 0.0 0.00 0.00 0.03 84 1014.4
20260901173013 19 173 3.2 0.0 0.00 0.00 0.03 84 1014.4
20260901172513 19 198 3.2 0.0 0.00 0.00 0.03 85 1014.4
20260901172012 18 202 3.2 0.0 0.00 0.00 0.03 87 1014.4
20260901171517 18 132 3.2 0.0 0.00 0.00 0.03 88 1014.4
20260901171009 18 180 3.2 0.0 0.00 0.00 0.03 89 1014.2
20260901170509 18 128 3.2 0.0 0.00 0.00 0.03 90 1014.2
20260901170007 17 90 1.6 0.0 0.00 0.00 0.03 92 1014.2
20260901165505 17 262 1.6 0.0 0.00 0.00 0.03 92 1014.2
20260901165008 17 198 3.2 0.0 0.00 0.00 0.03 93 1014.2
20260901164504 17 224 1.6 0.0 0.00 0.00 0.03 94 1014.2
20260901164002 17 126 1.6 0.0 0.00 0.00 0.03 95 1014.1
20260901163502 16 168 1.6 0.0 0.00 0.00 0.03 95 1014.1
20260901163106 16 159 1.6 0.0 0.00 0.00 0.03 96 1014.1
20260901162559 16 159 1.6 0.0 0.00 0.00 0.03 96 1014.2
20260901162058 16 215 1.6 0.0 0.00 0.00 0.03 96 1014.2
20260901161558 16 187 1.6 0.0 0.00 0.00 0.03 96 1014.2
20260901161057 16 213 1.6 0.0 0.00 0.00 0.03 96 1014.2
20260901160558 16 176 3.2 0.0 0.00 0.00 0.03 96 1014.2
20260901160057 16 207 3.2 0.0 0.00 0.00 0.03 96 1014.2
20260901155556 16 200 3.2 0.0 0.00 0.00 0.03 96 1014.1
20260901155056 16 169 1.6 0.0 0.00 0.00 0.03 97 1014.1
20260901154556 16 157 1.6 0.0 0.00 0.00 0.03 96 1014.1
20260901154055 16 155 1.6 0.0 0.00 0.00 0.03 96 1014.0
20260901153555 16 121 1.6 0.0 0.00 0.00 0.03 97 1014.0
20260901153105 16 157 1.6 0.0 0.00 0.00 0.03 97 1014.0
20260901152554 15 160 1.6 0.0 0.00 0.00 0.03 97 1014.0
20260901152054 15 187 1.6 0.0 0.00 0.00 0.03 97 1014.0
20260901151554 15 158 3.2 0.0 0.00 0.00 0.03 97 1014.0
20260901151054 15 157 1.6 0.0 0.00 0.00 0.03 97 1013.9
20260901150553 15 216 3.2 0.0 0.00 0.00 0.03 97 1013.9
20260901150053 15 187 1.6 0.0 0.00 0.00 0.03 97 1013.9
20260901145553 15 216 1.6 0.0 0.00 0.00 0.03 97 1013.5
20260901145053 15 210 1.6 0.0 0.00 0.00 0.03 97 1013.5
20260901144554 15 192 1.6 0.0 0.00 0.00 0.03 97 1013.5
20260901144052 15 179 1.6 0.0 0.00 0.00 0.03 97 1013.5
20260901143552 15 130 1.6 0.0 0.00 0.00 0.03 97 1013.5
20260901143054 15 204 1.6 0.0 0.00 0.00 0.03 97 1013.5
20260901142550 15 136 1.6 0.0 0.00 0.00 0.03 97 1013.4
20260901142052 15 73 1.6 0.0 0.00 0.00 0.03 97 1013.4
20260901141557 15 73 0.0 0.0 0.00 0.00 0.03 97 1013.4
20260901141051 15 152 0.0 0.0 0.00 0.00 0.03 97 1013.1
20260901140550 15 151 0.0 0.0 0.00 0.00 0.03 97 1013.1
20260901140051 15 152 0.0 0.0 0.00 0.00 0.03 97 1013.1
20260901135554 15 243 0.0 0.0 0.00 0.00 0.03 97 1013.0
20260901135050 15 207 0.0 0.0 0.00 0.00 0.03 97 1013.0
20260901134550 15 196 0.0 0.0 0.00 0.00 0.03 97 1013.0
20260901134048 15 196 0.0 0.0 0.00 0.00 0.03 97 1013.0
20260901133550 15 196 0.0 0.0 0.00 0.00 0.03 97 1013.0
20260901133048 14 132 0.0 0.0 0.00 0.00 0.03 97 1013.0
20260901132548 14 132 0.0 0.0 0.00 0.00 0.03 97 1012.9
20260901132047 14 119 0.0 0.0 0.00 0.00 0.03 96 1012.9
20260901131553 14 119 0.0 0.0 0.00 0.00 0.03 96 1012.9
20260901131047 14 119 0.0 0.0 0.00 0.00 0.03 96 1012.7
20260901130550 14 119 0.0 0.0 0.00 0.00 0.03 96 1012.7
20260901130047 15 119 0.0 0.0 0.00 0.00 0.03 96 1012.7
20260901125549 15 171 0.0 0.0 0.00 0.00 0.03 96 1012.6
20260901125046 15 171 0.0 0.0 0.00 0.00 0.03 96 1012.6
20260901124547 15 171 0.0 0.0 0.00 0.00 0.03 96 1012.6
20260901124046 15 171 0.0 0.0 0.00 0.00 0.03 96 1012.7
20260901123545 15 171 0.0 0.0 0.00 0.00 0.03 96 1012.7
20260901123047 15 171 0.0 0.0 0.00 0.00 0.03 96 1012.7
20260901122545 15 171 0.0 0.0 0.00 0.00 0.03 96 1012.6
20260901122044 15 223 0.0 0.0 0.00 0.00 0.03 97 1012.6
20260901121548 15 223 0.0 0.0 0.00 0.00 0.03 97 1012.6
20260901121044 15 223 0.0 0.0 0.00 0.00 0.00 96 1012.3
20260901120544 15 223 0.0 0.0 0.00 0.00 0.00 97 1012.3
20260901120046 15 223 0.0 0.0 0.00 0.00 0.00 97 1012.3
20260901115544 15 223 0.0 0.0 0.00 0.00 0.00 96 1012.2
20260901115044 15 223 0.0 0.0 0.00 0.00 0.00 96 1012.2
20260901114545 15 223 0.0 0.0 0.00 0.00 0.00 96 1012.2
20260901114043 14 223 0.0 0.0 0.00 0.00 0.00 96 1012.1
20260901113546 14 223 0.0 0.0 0.00 0.00 0.00 96 1012.1
20260901113042 14 223 0.0 0.0 0.00 0.00 0.00 96 1012.1
20260901112541 15 223 0.0 0.0 0.00 0.00 0.00 96 1012.2
20260901112043 15 223 0.0 0.0 0.00 0.00 0.00 96 1012.2
20260901111541 15 223 0.0 0.0 0.00 0.00 0.00 96 1012.2
20260901111040 15 223 0.0 0.0 0.00 0.00 0.00 96 1012.2
20260901110541 15 223 0.0 0.0 0.00 0.00 0.00 96 1012.2
20260901110040 15 223 0.0 0.0 0.00 0.00 0.00 96 1012.2
20260901105540 15 223 0.0 0.0 0.00 0.00 0.00 96 1012.5
20260901105043 15 223 0.0 0.0 0.00 0.00 0.00 96 1012.5
20260901104539 15 223 0.0 0.0 0.00 0.00 0.00 96 1012.5
20260901104040 15 223 0.0 0.0 0.00 0.00 0.00 96 1012.5
20260901103538 15 223 0.0 0.0 0.00 0.00 0.00 96 1012.5
20260901103046 15 223 0.0 0.0 0.00 0.00 0.00 96 1012.5
20260901102537 15 223 0.0 0.0 0.00 0.00 0.00 96 1012.5
20260901102037 15 223 0.0 0.0 0.00 0.00 0.00 96 1012.5
20260901101537 15 224 0.0 0.0 0.00 0.00 0.00 96 1012.5
20260901101036 15 242 0.0 0.0 0.00 0.00 0.00 96 1012.5
20260901100536 15 242 0.0 0.0 0.00 0.00 0.00 96 1012.5
20260901100036 15 242 1.6 0.0 0.00 0.00 0.00 96 1012.5
20260901095536 15 297 1.6 0.0 0.00 0.00 0.00 96 1012.5
20260901095036 15 280 1.6 0.0 0.00 0.00 0.00 96 1012.5
20260901094536 15 272 1.6 0.0 0.00 0.00 0.00 96 1012.5
20260901094038 15 260 1.6 0.0 0.00 0.00 0.00 96 1012.3
20260901093536 15 275 1.6 0.0 0.00 0.00 0.00 96 1012.3
20260901093035 15 275 3.2 0.0 0.00 0.00 0.00 96 1012.3
20260901092536 15 269 3.2 0.0 0.00 0.00 0.00 96 1012.4
20260901092035 15 275 3.2 0.0 0.00 0.00 0.00 96 1012.4
20260901091535 15 276 1.6 0.0 0.00 0.00 0.00 96 1012.4
20260901091038 15 283 1.6 0.0 0.00 0.00 0.00 96 1012.4
20260901090536 15 277 3.2 0.0 0.00 0.00 0.00 96 1012.4
20260901090034 15 271 3.2 0.0 0.00 0.00 0.00 96 1012.4
20260901085533 15 265 3.2 0.0 0.00 0.00 0.00 96 1012.5
20260901085033 15 294 1.6 0.0 0.00 0.00 0.00 96 1012.5
20260901084533 15 262 1.6 0.0 0.00 0.00 0.00 96 1012.5
20260901084036 15 262 0.0 0.0 0.00 0.00 0.00 96 1012.6
20260901083532 15 240 0.0 0.0 0.00 0.00 0.00 96 1012.6
20260901083033 15 240 0.0 0.0 0.00 0.00 0.00 96 1012.6
20260901082532 15 240 0.0 0.0 0.00 0.00 0.00 96 1012.6
20260901082031 15 240 0.0 0.0 0.00 0.00 0.00 96 1012.6
20260901081535 15 240 0.0 0.0 0.00 0.00 0.00 96 1012.6
20260901081031 15 240 0.0 0.0 0.00 0.00 0.00 96 1012.7
20260901080531 15 240 0.0 0.0 0.00 0.00 0.00 96 1012.7
20260901080031 15 190 0.0 0.0 0.00 0.00 0.00 96 1012.7
20260901075531 15 190 0.0 0.0 0.00 0.00 0.00 96 1012.6
20260901075030 15 190 1.6 0.0 0.00 0.00 0.00 95 1012.6
20260901074533 15 190 0.0 0.0 0.00 0.00 0.00 96 1012.6
20260901074028 15 287 0.0 0.0 0.00 0.00 0.00 96 1012.5
20260901073528 15 287 1.6 0.0 0.00 0.00 0.00 96 1012.5
20260901073028 15 309 1.6 0.0 0.00 0.00 0.00 96 1012.5
20260901072530 15 284 0.0 0.0 0.00 0.00 0.00 96 1012.5
20260901072026 15 284 0.0 0.0 0.00 0.00 0.00 96 1012.5
20260901071526 15 293 0.0 0.0 0.00 0.00 0.00 96 1012.5
20260901071028 15 204 0.0 0.0 0.00 0.00 0.00 96 1012.6
20260901070527 16 204 0.0 0.0 0.00 0.00 0.00 95 1012.6
20260901070029 16 162 0.0 0.0 0.00 0.00 0.00 96 1012.6
20260901065525 16 162 1.6 0.0 0.00 0.00 0.00 96 1012.5
20260901065029 16 178 1.6 0.0 0.00 0.00 0.00 96 1012.5
20260901064536 16 216 1.6 0.0 0.00 0.00 0.00 96 1012.5
20260901064024 16 168 1.6 0.0 0.00 0.00 0.00 96 1012.5
20260901063527 16 181 1.6 0.0 0.00 0.00 0.00 96 1012.5
20260901063028 16 155 1.6 0.0 0.00 0.00 0.00 96 1012.5
20260901062523 16 160 1.6 0.0 0.00 0.00 0.00 96 1012.1
20260901062028 16 196 1.6 0.0 0.00 0.00 0.00 96 1012.1
20260901061523 16 202 1.6 0.0 0.00 0.00 0.00 96 1012.1
20260901061023 16 205 1.6 0.0 0.00 0.00 0.00 95 1012.2
20260901060522 16 207 1.6 0.0 0.00 0.00 0.00 95 1012.2
20260901060022 16 195 1.6 0.0 0.00 0.00 0.00 95 1012.2
20260901055523 16 198 1.6 0.0 0.00 0.00 0.00 95 1012.2
20260901055021 16 195 1.6 0.0 0.00 0.00 0.00 95 1012.2
20260901054523 16 201 1.6 0.0 0.00 0.00 0.00 95 1012.2
20260901054022 16 234 1.6 0.0 0.00 0.00 0.00 95 1012.1
20260901053522 16 199 1.6 0.0 0.00 0.00 0.00 95 1012.1
20260901053020 16 227 3.2 0.0 0.00 0.00 0.00 95 1012.1
20260901052519 16 206 3.2 0.0 0.00 0.00 0.00 95 1012.1
20260901052019 16 208 3.2 0.0 0.00 0.00 0.00 95 1012.1
20260901051519 16 198 1.6 0.0 0.00 0.00 0.00 95 1012.1
20260901051019 16 211 1.6 0.0 0.00 0.00 0.00 95 1012.2
20260901050519 16 200 1.6 0.0 0.00 0.00 0.00 95 1012.2
20260901050020 16 263 3.2 0.0 0.00 0.00 0.00 95 1012.2
20260901045523 16 217 3.2 0.0 0.00 0.00 0.00 95 1012.2
20260901045018 16 279 1.6 0.0 0.00 0.00 0.00 95 1012.2
20260901044518 16 232 1.6 0.0 0.00 0.00 0.00 95 1012.2
20260901044018 16 199 1.6 0.0 0.00 0.00 0.00 95 1012.1
20260901043520 16 199 1.6 0.0 0.00 0.00 0.00 95 1012.1
20260901043019 16 200 1.6 0.0 0.00 0.00 0.00 95 1012.1
20260901042516 16 219 1.6 0.0 0.00 0.00 0.00 95 1012.0
20260901042016 16 252 1.6 0.0 0.00 0.00 0.00 95 1012.0
20260901041516 16 269 3.2 0.0 0.00 0.00 0.00 94 1012.0
20260901041016 16 232 3.2 0.0 0.00 0.00 0.00 94 1011.7
20260901040516 16 270 3.2 0.0 0.00 0.00 0.00 94 1011.7
20260901040016 16 267 6.4 0.0 0.00 0.00 0.00 94 1011.7
20260901035516 16 273 3.2 0.0 0.00 0.00 0.00 94 1011.6
20260901035015 16 275 1.6 0.0 0.00 0.00 0.00 94 1011.6
20260901034517 16 16 0.0 0.0 0.00 0.00 0.00 94 1011.6
20260901034016 16 15 1.6 0.0 0.00 0.00 0.00 93 1011.1
20260901033514 16 197 1.6 0.0 0.00 0.00 0.00 93 1011.1
20260901033014 16 232 1.6 0.0 0.00 0.00 0.00 93 1011.1